Location: Harwich
(41.7160°N, 69.9939°W)
Time: 18:05:17
(UTC+01:00)

Explorer 7 - Pass Details

Date: 01 February 2023
Orbit: 478 x 657 km, 50.3° (Epoch: 19 March)

Event Time Altitude Azimuth Distance (km) Brightness Sun altitude
Rises 01:27:30 0° 295° (WNW) 2,941 11.5 -28.8°
Reaches altitude 10° 01:30:04 10° 283° (WNW) 2,048 10.6 -29.3°
Maximum altitude 01:34:04 28° 226° (SW) 1,236 8.9 -30.0°
Enters shadow 01:34:30 27° 216° (SW) 1,249 8.8 -30.1°
